星链-36185(STARLINK-36185)

导读 | 豆包AI

STARLINK-36185是美国星链计划低轨互联网星座的组网卫星,于2025年12月17日发射入轨,隶属于太空探索技术公司SpaceX开发的Starlink星座。作为近地轨道通信卫星,它承担全球高速互联网接入服务组网任务,推进星链星座完成全球覆盖部署,为偏远区域、移动场景提供低延迟通信服务。

基本信息
目录编号:
67204
目录名称:
STARLINK-36185
国际标识:
2025-304N
轨道中心:
EARTH
卫星名称:
星链-36185
卫星全名:
星链-36185(STARLINK-36185)
卫星状态:
在轨 (已飞行87 天)
发射日期:
2025-12-17 UTC
国别 :
美国 (US)
星等 :
--
轨道信息
数据来源 国际轨道数据
星历时间: 2026-03-13T16:14:12+0800
18小时前
查看轨道信息
半长轴: 6947.668km
偏心率: 0.000342
轨道倾角: 70.002°
近地点辐角 274.654°
升交点赤经 165.179°
平近点角 85.423°
近地点: 567.154km
远地点: 571.908km
周期: 96.055分钟
每日圈数: 14.991469
详细信息
固有亮度:
5
最大亮度:
2.5
卫星平台:
Starlink V1.0
覆盖范围:
全球
运营商:
太空探索技术公司
运营商所在国:
美国
制造商(研发单位):
太空探索技术公司
制造商所在国:
美国
使用方式:
暂无
卫星简介
Starlink 计划是 SpaceX 推出的全球卫星互联网项目,通过发射低轨道卫星,为全球尤其是偏远地区提供高速、低延迟的互联网服务。自 2019 年起,Starlink 已部署数千颗卫星,旨在缩小全球数字鸿沟,推动互联网普及。该项目还为军事、航空等行业提供通信支持,带来广泛经济效益。
2D轨道图
3D轨道图
轨道高度分析图
轨道倾角分析图
轨道综合分析图
查看轨道综合分析图